Regional Weather Roundup
Issued by NWS Midland/Odessa, TX

Skip options and go directly to product.
Home | Oldest Version | Previous Version | Current Version | All | Text Only | Save Text | Print | Product List | Glossary Off

Skip product version selection by date and time.   

629
ASUS44 KMAF 300501
RWRMAF
MIDLAND AREA WEATHER ROUNDUP
NATIONAL WEATHER SERVICE MIDLAND TX
1200 AM CDT TUE AUG 30 2016

...IN SOUTHWEST TEXAS AND SOUTHEAST NEW MEXICO...

CITY           SKY/WX    TMP DP  RH WIND       PRES   REMARKS
ALPINE         MOCLDY    64  62  93 CALM      30.28S
ANDREWS        CLOUDY    68  68 100 N9        30.19S
ARTESIA        PTCLDY    70  68  94 N7        30.24R
BIG SPRING     PTCLDY    76  68  75 NE8       30.17R
CARLSBAD       CLOUDY    71  63  75 NE5       30.20R
DRYDEN           N/A     72  70  93 NE8       30.10R
FORT STOCKTON  CLOUDY    68  67  96 CALM      30.16R
GUAD PASS      NOT AVBL
HOBBS          CLOUDY    66  66 100 NE12      30.23F
MARFA          CLOUDY   N/A N/A N/A N6        30.26R
MIDLAND AIRPK  CLOUDY    72  68  89 N8        30.17R
MIDLAND INTL   MOCLDY    71  68  90 N9        30.16R
ODESSA         CLOUDY    71  67  87 NE9       30.17R
PECOS          CLOUDY    71  68  90 CALM      30.16R
PRESIDIO       CLOUDY    74  65  74 N3        30.12S
SEMINOLE       CLOUDY    67  65  94 NE9       30.22R
SNYDER           N/A     76  66  71 E7        30.16S
WINK           MOCLDY    72  66  81 N10       30.14S
$$
...OTHER STATIONS IN TEXAS...

CITY           SKY/WX    TMP DP  RH WIND       PRES   REMARKS
ABILENE        PTCLDY    74  69  85 E5        30.12S
AMARILLO       CLOUDY    66  64  93 N7        30.27S
AUSTIN         CLEAR     75  73  93 NE7       29.99F
BROWNSVILLE    CLEAR     79  75  87 S3        29.90R
CORPUS CHRISTI LGT RAIN  79  77  94 NE12      29.91R
DALLAS FTW     MOCLDY    82  71  69 CALM      30.05S
DEL RIO        CLOUDY    75  74  96 CALM      30.00S
EL PASO        PTCLDY    74  59  59 E8        30.18R
HOUSTON INT    MOCLDY    75  72  90 NE7       29.99R
LUBBOCK        MOCLDY    67  65  93 NE9       30.21S
SAN ANGELO     CLOUDY    76  68  76 E13       30.10R
SAN ANTONIO    MOCLDY    75  71  87 N5        30.01R
WACO           CLOUDY    75  73  93 E5        30.03F
WICHITA FALLS  NOT AVBL
$$
...OTHER LOCATIONS IN NEW MEXICO...

CITY           SKY/WX    TMP DP  RH WIND       PRES   REMARKS
ALAMAGORDO     CLEAR     70  55  60 NW9       30.20R
ALBUQUERQUE    PTCLDY    65  53  65 E24       30.31R
CANNON AFB     CLOUDY    65  65 100 E3        30.29R
CLOVIS         CLOUDY    64  61  88 E6        30.29S
HOLLOMAN AFB   CLEAR     71  57  61 NW3       30.17R
ROSWELL        CLOUDY    70  61  73 NE3       30.25R
RUIDOSO          N/A     57  55  94 SE7       30.43R
SANTA FE       CLOUDY    58  48  69 S7        30.38R
TRUTH OR CONSE MOCLDY    71  53  52 SE5       30.24R
TUCUMCARI      CLOUDY    66  60  81 NE7       30.29R
$$

USA.gov is the U.S. government's official web portal to all federal, state and local government web resources and services.